Weather in Presnovka

Kazakhstan     54˚40′17″N   67˚09′29″E
temp.,
°C
wind,
m/s
gust,
m/s
humid.,
%
clouds,
%
prec.,
mm/h
press.,
hPa
HPBL,
m
3 december, thu
thu300:00−16˚ese23950 0.0 104323
03:00−17˚ese23950 0.0 104222
06:00−17˚e23930 0.0 104222
09:00−17˚e339198 0.0 104138
12:00−16˚e239156 0.0 104087
15:00−15˚ene239123 0.0 104057
18:00−17˚e238812 0.0 104023
21:00−18˚ene22880 0.0 103920
4 december, fri
fri400:00−18˚e12890 0.0 103920
03:00−19˚e11900 0.0 103820
06:00−19˚nnw11882 0.0 103820
09:00−18˚nw118699 0.0 103820
12:00−16˚wnw128890 0.0 103820
15:00−14˚wnw129083 0.0 103837
18:00−16˚nw229386 0.0 103820
21:00−17˚n229622 0.0 103820
5 december, sat
sat500:00−17˚nne229653 0.0 103820
03:00−17˚nne22962 0.0 103920
06:00−17˚ne229729 0.0 104020
09:00−18˚ne229760 0.0 104020
12:00−16˚e129662 0.0 104124
15:00−16˚ese11942 0.0 104120
18:00−18˚e11971 0.0 104120
21:00−18˚sse11960 0.0 104120
6 december, sun
sun600:00−19˚ssw11970 0.0 104220
03:00−18˚ssw22960 0.0 104220
06:00−18˚wsw22960 0.0 104120
09:00−18˚sw22960 0.0 104120
12:00−16˚sw23940 0.0 104155
15:00−15˚sw23940 0.0 104061
18:00−17˚sw33950 0.0 103924
21:00−17˚sw33950 0.0 103925
7 december, mon
mon700:00−17˚sw34960 0.0 103842
03:00−17˚sw34960 0.0 103761
06:00−17˚sw46960 0.0 103593
09:00−17˚sw479613 0.0 1034117
12:00−16˚sw499415 0.0 1034216
15:00−14˚sw48930 0.0 1033246
18:00−16˚sw48959 0.0 1032150
21:00−15˚wsw369775 0.0 1032135